Vertical_Velocity
-4 3 -7 5 -6 -2 1 1 -2 -0 -2 -1 -1 0 -0 0 -0 -1 -1 -2 1 1 -0 -1 1 0 -1 0 1 5 6 6 9 7 4 4 1 10 3 -2 6 -2 -3 1 3 12 9
-4 0 -5 -0 -1 -3 1 2 -4 -0 -2 -1 0 0 -0 0 -0 -1 -0 -1 1 2 1 1 -1 -2 -1 -0 0 5 0 3 3 4 -1 1 2 -2 -8 -2 -0 2 10 13 3 0 -4
5 -3 -1 -5 -1 -2 2 2 -4 -0 -3 -1 1 -1 -0 1 0 1 -1 -2 2 1 -0 2 -1 1 -3 -4 4 4 3 0 5 2 2 3 5 17 6 5 2 -1 8 1 10 5 -3
-0 -2 -0 -0 0 -5 0 -1 -2 -2 -5 1 -0 0 1 2 1 -1 -0 2 -0 2 3 0 -0 2 -2 -3 -2 -0 2 -5 -2 4 1 1 -3 5 4 5 4 4 4 -1 1 1 1
-0 1 4 -4 1 -5 -1 -2 -2 -2 -6 2 -1 1 3 -0 3 -1 2 -1 -0 1 0 2 0 -0 -2 -5 -5 0 3 1 5 -2 -3 8 16 12 2 -4 5 5 -1 -4 -0 -1 -0
3 1 -0 0 -4 -2 -0 -2 -3 -2 -5 1 1 1 1 2 1 -0 1 -1 2 1 0 1 1 2 1 3 -1 4 5 -5 -1 12 5 -2 6 5 6 6 -5 -3 -1 1 -7 -0 0
1 3 -2 3 -5 -0 1 -1 -2 -3 -5 0 1 4 -2 4 0 0 1 3 4 5 -0 -0 1 5 1 10 -2 -1 5 -5 -0 10 -1 3 -2 -2 -3 -4 -3 -2 2 -3 2 14 4
1 4 -3 4 -8 -3 3 1 0 -4 -4 0 1 -0 2 7 -6 2 -2 1 0 1 5 -4 0 0 1 -1 2 0 -0 0 3 3 6 -4 2 2 1 -5 -5 -2 -3 3 5 4 -0
0 8 2 3 -8 -1 1 -3 5 -5 -2 -0 1 -1 -1 2 4 0 -0 0 0 2 1 -1 2 3 5 2 6 2 0 3 1 -3 -1 -1 -2 -6 1 -2 -3 4 11 -0 -3 4 2
-3 7 4 -2 -8 3 -1 -3 8 -7 1 0 2 -1 -0 10 1 -2 0 -2 1 -2 -2 -4 -3 4 1 -1 1 0 3 2 -4 2 -5 0 -1 -1 2 1 0 2 4 2 -5 -5 -12
5 0 5 2 -5 1 -3 1 4 -3 2 -0 2 -0 6 5 -3 1 -0 1 -3 -2 -6 -1 -1 -1 3 -4 -1 4 -1 0 0 -4 -2 -0 0 -1 -0 -2 -1 -3 -2 -4 5 5 4
-1 2 8 -6 -0 -1 -0 3 -1 2 1 -2 2 2 3 -0 1 -2 1 -2 -1 -3 -5 0 -1 -5 1 1 0 0 1 1 1 1 1 1 -0 -2 -2 1 -1 2 0 1 3 1 -0
3 -2 8 2 1 -6 4 3 -4 4 1 -1 1 1 2 3 -1 -2 -1 2 -2 -2 4 -5 -5 -2 2 1 -1 2 -0 2 -6 -5 -1 1 -0 -2 2 -1 0 -1 2 -0 -3 -2 -5
4 4 7 3 -1 -1 4 3 -2 3 1 1 0 0 0 3 -1 -2 -2 0 1 2 4 0 -0 3 2 2 2 1 -0 -1 2 -1 0 -1 1 0 -1 1 -0 2 2 -2 -5 -3 -3
3 3 2 3 1 -1 6 2 1 2 1 1 0 -2 1 -1 -2 -2 -1 -1 3 3 6 -6 4 0 -0 0 -5 3 1 0 -1 -2 -2 -3 -2 -1 0 0 -1 -1 -1 1 -4 0 -1
3 9 0 -4 7 -3 6 0 2 1 0 1 2 -1 1 -3 -1 -4 1 1 1 -3 5 7 -4 -2 -3 -0 -3 2 -3 -2 -2 -0 1 -1 -4 -2 1 1 2 1 -1 -2 -1 -4 -1
4 4 -1 3 -2 2 5 1 0 1 2 2 3 -2 -1 -3 -1 -1 -3 2 2 5 4 9 -2 -1 1 -2 2 -3 -1 -2 1 1 1 2 1 -3 2 1 -1 1 2 0 -2 -1 -6
1 -0 2 1 1 1 3 3 -1 1 3 4 0 -2 1 0 -2 -3 -2 4 3 5 4 -2 3 -1 7 -2 -1 -2 -3 -1 -0 -0 -0 1 0 -2 -1 -1 -0 -1 -1 -1 -2 -3 -0
1 2 2 -2 2 3 3 3 -2 1 2 -0 -1 2 0 -1 -7 -7 4 -0 -1 1 1 2 -2 1 2 0 1 0 -0 0 -0 -1 -1 1 3 -3 -1 0 -0 -1 -3 -4 -2 -0 -2
1 4 -5 0 1 3 4 0 -1 0 4 4 6 0 4 -2 -2 -2 2 3 -1 0 -4 0 -2 5 2 2 -0 -2 -2 -2 0 -0 1 2 -1 -2 -9 -3 -1 -2 -1 -2 -1 -0 -4
2 2 -4 3 3 3 3 -3 -0 1 5 2 3 -1 -9 -19 -7 -3 3 3 1 -3 -1 2 1 4 1 0 -2 -4 -2 -0 0 1 -1 -1 -1 1 -0 -1 -1 -1 -0 -1 -1 1 -2
2 -1 -1 1 3 5 -0 -6 3 2 2 1 -4 -4 -4 -3 6 2 3 0 -0 -1 3 -1 -1 -3 -2 -1 3 -2 1 0 1 1 1 -0 -1 0 -1 -1 -2 -4 -2 -2 -0 2 -3
12 -10 2 2 5 1 -6 1 0 1 4 1 8 3 1 -0 2 4 -4 -1 -3 0 1 -1 -1 -1 -2 1 1 -1 -1 -2 -1 -2 0 1 1 1 -1 -1 1 -5 -1 -2 -2 1 -2
-7 3 1 6 2 -3 -3 2 0 0 4 -0 3 -0 -0 -4 -2 -1 1 -4 -2 -1 2 -1 -3 -1 -5 1 -1 -1 -1 -1 -1 -1 -0 -1 2 2 -1 1 -6 -3 -3 -1 -4 -0 -0
-0 4 3 3 0 -4 1 3 -1 3 0 -0 3 0 3 -2 1 4 -2 -2 -3 -0 -2 -1 -3 -1 -0 0 0 0 -1 0 -3 -2 -1 -0 -0 -1 -1 -0 -3 -5 -10 -3 2 -2 -2
6 3 1 2 -5 0 2 1 -0 3 7 5 6 6 6 0 4 2 -1 3 -5 -2 -1 -0 2 -2 0 -0 0 -3 -4 -2 -1 -2 -1 1 2 1 1 -0 -4 -7 -2 0 1 -19 -0
4 2 2 -1 0 0 5 2 3 5 -14 -20 2 3 1 -1 2 -1 -1 -6 -1 1 -0 -1 -1 -0 4 0 2 0 -3 -2 -3 -2 -4 -1 -1 -4 0 -2 -6 -6 1 1 2 -12 -5
4 1 -1 -5 1 4 6 -0 1 0 5 -1 1 1 1 -3 1 -2 -5 -9 -6 -2 -4 -3 7 -1 3 1 0 -3 -2 0 -3 -3 -3 2 3 -3 3 0 -15 1 0 -11 7 -1 -3
4 0 -3 2 2 5 4 1 4 4 3 1 1 0 -1 -1 -3 -1 -0 0 -1 13 3 -0 1 -0 2 -4 -5 1 -2 -2 -0 -7 -0 -6 -3 -2 -4 -6 1 3 -1 1 2 -4 -4
Height
3109 3111 3113 3115 3116 3116 3117 3117 3117 3115 3113 3111 3108 3105 3104 3102 3103 3103 3104 3106 3108 3110 3114 3115 3117 3119 3122 3124 3126 3126 3127 3129 3132 3134 3136 3137 3138 3140 3144 3146 3147 3148 3149 3150 3151 3152 3155
3104 3105 3107 3110 3110 3111 3112 3113 3112 3110 3108 3106 3103 3101 3100 3099 3100 3101 3102 3104 3106 3109 3112 3114 3118 3120 3122 3124 3126 3126 3129 3131 3132 3135 3136 3136 3139 3142 3143 3144 3146 3148 3150 3151 3151 3153 3155
3098 3100 3101 3104 3105 3107 3108 3108 3107 3106 3103 3101 3098 3098 3096 3097 3098 3099 3101 3103 3106 3109 3112 3114 3118 3121 3123 3124 3125 3127 3129 3131 3133 3134 3136 3137 3139 3141 3140 3143 3147 3150 3151 3150 3151 3153 3155
3092 3094 3095 3097 3099 3102 3103 3103 3103 3102 3099 3097 3095 3095 3095 3095 3097 3098 3100 3103 3106 3109 3112 3115 3119 3121 3122 3124 3124 3127 3129 3131 3133 3135 3137 3138 3140 3140 3141 3142 3148 3150 3151 3151 3153 3154 3155
3086 3089 3091 3092 3095 3098 3098 3099 3099 3098 3095 3094 3093 3093 3093 3095 3097 3099 3101 3104 3108 3111 3113 3116 3120 3121 3123 3124 3125 3128 3130 3132 3134 3135 3137 3140 3141 3142 3144 3144 3147 3149 3150 3152 3153 3154 3155
3078 3082 3085 3086 3090 3092 3093 3095 3095 3094 3092 3092 3092 3093 3094 3096 3098 3100 3103 3107 3110 3112 3115 3117 3120 3124 3123 3124 3126 3128 3130 3133 3134 3135 3137 3139 3140 3141 3143 3144 3146 3148 3149 3150 3151 3154 3154
3071 3075 3079 3081 3085 3088 3089 3091 3091 3091 3089 3090 3091 3092 3095 3097 3099 3103 3106 3109 3114 3116 3116 3120 3121 3121 3122 3124 3126 3129 3130 3132 3134 3135 3137 3139 3141 3141 3142 3144 3145 3147 3146 3146 3147 3150 3152
3064 3068 3072 3076 3079 3083 3085 3087 3087 3088 3087 3089 3091 3093 3096 3097 3102 3105 3109 3111 3113 3116 3118 3119 3120 3121 3122 3123 3125 3128 3131 3134 3134 3136 3137 3140 3140 3141 3142 3144 3146 3146 3145 3143 3146 3148 3150
3056 3061 3066 3070 3075 3077 3081 3084 3085 3085 3086 3089 3092 3094 3097 3100 3104 3107 3110 3112 3114 3117 3119 3120 3121 3122 3123 3124 3126 3128 3131 3133 3135 3136 3137 3139 3141 3142 3144 3144 3146 3146 3145 3145 3146 3147 3149
3047 3055 3059 3065 3069 3073 3077 3081 3083 3083 3085 3089 3092 3095 3099 3102 3107 3108 3111 3113 3116 3118 3120 3121 3121 3123 3124 3124 3127 3129 3132 3135 3135 3137 3138 3141 3142 3142 3143 3144 3145 3146 3146 3146 3146 3148 3149
3038 3047 3053 3059 3063 3068 3073 3077 3080 3081 3085 3089 3092 3097 3100 3104 3106 3110 3113 3115 3117 3119 3120 3122 3122 3123 3124 3126 3128 3130 3132 3134 3136 3137 3140 3142 3142 3143 3143 3144 3145 3146 3146 3147 3148 3148 3149
3030 3039 3046 3053 3057 3064 3069 3074 3078 3079 3084 3089 3092 3097 3101 3104 3107 3110 3112 3115 3118 3121 3119 3120 3121 3123 3125 3126 3127 3129 3132 3135 3136 3138 3139 3140 3141 3143 3143 3143 3143 3144 3146 3147 3147 3148 3149
3022 3031 3039 3046 3052 3059 3065 3070 3075 3078 3083 3088 3092 3097 3102 3105 3108 3110 3113 3116 3120 3118 3119 3120 3121 3123 3125 3127 3127 3130 3133 3134 3136 3138 3139 3140 3140 3141 3142 3143 3143 3144 3144 3146 3149 3149 3148
3015 3023 3032 3041 3047 3054 3061 3067 3072 3076 3081 3087 3092 3097 3101 3104 3107 3110 3114 3118 3117 3116 3117 3118 3120 3123 3125 3126 3128 3130 3132 3134 3135 3137 3138 3139 3142 3141 3141 3142 3142 3142 3142 3142 3147 3150 3145
3009 3017 3025 3035 3042 3050 3057 3064 3069 3073 3079 3085 3090 3096 3100 3103 3107 3111 3115 3116 3114 3115 3117 3118 3121 3124 3125 3126 3128 3130 3132 3133 3135 3136 3139 3139 3140 3140 3140 3141 3142 3141 3141 3142 3142 3145 3145
3002 3012 3020 3030 3037 3045 3053 3060 3066 3071 3077 3083 3089 3095 3098 3102 3107 3110 3113 3113 3114 3115 3116 3119 3120 3123 3124 3126 3128 3129 3131 3132 3133 3135 3136 3137 3139 3140 3140 3141 3141 3141 3142 3143 3142 3147 3150
2997 3006 3015 3024 3033 3041 3049 3056 3062 3068 3075 3081 3087 3092 3096 3101 3106 3109 3110 3112 3113 3114 3117 3119 3120 3121 3123 3125 3127 3128 3130 3131 3132 3133 3135 3136 3137 3141 3141 3141 3141 3142 3141 3141 3142 3143 3143
2992 3002 3011 3021 3029 3037 3045 3052 3058 3064 3072 3078 3084 3089 3093 3099 3104 3105 3108 3111 3112 3114 3116 3118 3120 3121 3122 3123 3125 3127 3129 3130 3130 3132 3134 3135 3136 3138 3140 3140 3140 3140 3140 3140 3141 3143 3141
2989 2999 3008 3017 3026 3034 3041 3048 3054 3061 3068 3075 3081 3086 3091 3096 3098 3102 3107 3110 3111 3113 3115 3117 3119 3120 3120 3122 3125 3126 3128 3129 3130 3131 3132 3134 3135 3137 3140 3141 3139 3139 3139 3140 3140 3140 3140
2987 2997 3005 3015 3023 3031 3037 3044 3050 3058 3066 3074 3080 3083 3087 3092 3096 3101 3106 3108 3110 3112 3114 3116 3118 3119 3120 3122 3123 3125 3127 3128 3128 3129 3131 3132 3133 3134 3135 3134 3136 3137 3137 3138 3138 3138 3137
2985 2995 3003 3012 3020 3027 3033 3041 3047 3055 3063 3071 3075 3078 3082 3085 3092 3099 3104 3106 3109 3111 3112 3114 3117 3119 3120 3121 3123 3124 3125 3126 3127 3128 3129 3131 3132 3133 3133 3133 3134 3135 3135 3135 3134 3134 3133
2984 2994 3004 3011 3018 3024 3031 3038 3045 3053 3059 3067 3072 3075 3079 3085 3091 3096 3100 3104 3107 3109 3111 3113 3115 3117 3119 3120 3122 3122 3124 3125 3126 3127 3128 3129 3130 3131 3131 3132 3132 3132 3131 3131 3130 3130 3128
2983 2994 3003 3010 3017 3023 3029 3035 3043 3050 3057 3064 3070 3074 3079 3083 3087 3093 3097 3102 3105 3107 3110 3111 3113 3115 3117 3118 3120 3121 3122 3123 3124 3125 3127 3128 3128 3129 3129 3129 3130 3129 3126 3126 3126 3125 3124
2985 2994 3002 3010 3016 3022 3028 3034 3041 3048 3057 3066 3069 3073 3076 3080 3084 3090 3096 3100 3103 3106 3108 3110 3112 3114 3117 3118 3119 3121 3122 3122 3123 3124 3125 3125 3126 3127 3127 3127 3130 3122 3121 3122 3121 3121 3120
2986 2995 3002 3009 3016 3022 3027 3034 3041 3049 3058 3064 3068 3072 3075 3078 3085 3089 3093 3097 3101 3104 3107 3109 3111 3113 3115 3117 3118 3119 3121 3121 3120 3121 3122 3123 3124 3124 3125 3123 3120 3119 3117 3118 3117 3117 3116
2989 2995 3002 3010 3017 3022 3028 3035 3042 3049 3056 3061 3065 3071 3075 3079 3083 3087 3092 3096 3099 3102 3105 3107 3110 3111 3113 3114 3116 3117 3118 3119 3118 3117 3117 3119 3120 3122 3121 3120 3117 3114 3114 3114 3112 3109 3111
2989 2997 3004 3011 3017 3023 3030 3036 3042 3049 3054 3056 3065 3070 3074 3077 3081 3085 3089 3093 3097 3100 3103 3105 3107 3109 3111 3112 3114 3115 3116 3116 3116 3115 3115 3115 3115 3116 3116 3115 3110 3110 3109 3109 3111 3110 3106
2992 2999 3006 3013 3019 3024 3031 3037 3043 3050 3056 3061 3065 3069 3073 3076 3080 3083 3088 3091 3094 3098 3101 3103 3106 3106 3108 3110 3111 3112 3112 3112 3112 3111 3111 3112 3112 3112 3111 3110 3105 3104 3102 3105 3105 3102 3102
2994 3001 3008 3015 3020 3025 3032 3038 3044 3050 3056 3060 3065 3068 3071 3075 3079 3082 3085 3089 3093 3097 3099 3100 3103 3104 3105 3106 3107 3107 3107 3107 3107 3107 3107 3107 3107 3108 3108 3104 3100 3099 3099 3099 3098 3097 3095